Location: Unspecified
(40.7945°N, 111.1337°W)
Time: 16:48:51
(UTC-06:00)

Vanguard 1 - Pass Details

Date: 30 June 2019
Orbit: 653 x 3830 km, 34.2° (Epoch: 22 October)

Event Time Altitude Azimuth Distance (km) Brightness Sun altitude
Rises 21:32:16 0° 179° (S) 7,248 14.1 -5.8°
Reaches altitude 10° 21:40:19 10° 161° (SSE) 6,657 13.8 -7.0°
Maximum altitude 21:51:46 16° 130° (SE) 6,358 13.5 -8.7°
Drops below altitude 10° 22:03:14 10° 99° (E) 6,773 13.8 -10.3°
Sets 22:11:14 0° 83° (E) 7,448 14.2 -11.4°
